Flag for Germany Weather past 2 weeks in Lahr, Baden-Württemberg, Germany

Now
62 °F

Passing clouds.


Feels Like: 62 °F
Forecast: 65 / 92 °F
Wind: 1 mph from Southwest

Location: Lahr

Current Time: Aug 29, 2015 at 5:49:20 AM

Latest Report: Aug 29, 2015 at 5:00 AM


Visibility: 7 mi

Pressure: 30.17 "Hg

Humidity: 100%

Dew point: 62 °F

Location of LahrLocation

Historic Weather in Lahr — Graph

°F

Lahr temperature yesterday

Maximum temperature yesterday: 83 °F (at 6:00 PM)
Minimum temperature yesterday: 67 °F (at 11:00 PM)
Average temperature yesterday: 74 °F

Past Weeks' High & Low Weather Summary

 TemperatureHumidityPressure
High90 °F (Aug 27, 5:00 PM)99% (Aug 17, 7:00 AM)30.26 "Hg (Aug 17, 7:00 AM)
Low46 °F (Aug 18, 7:00 AM)26% (Aug 22, 5:00 PM)29.69 "Hg (Aug 24, 1:00 PM)
Average66 °F69%29.98 "Hg
* Reported Aug 14 4:00 AM — Aug 29 4:00 AM, Lahr, Weather by CustomWeather, © 2015

Note: Actual official high and low records may vary slightly from our data, if they occured in-between our weather recording intervals... More about our weather records

Advertising

Lahr weather history for previous 24 hours

 ConditionsComfort  
Time TempWeatherWind HumidityBarometerVisibility
4:00 AM
Sat, Aug 29
62 °FClear.1 mph97%30.17 "Hg14 mi
3:00 AM63 °FClear.1 mph96%30.16 "Hg13 mi
2:00 AM65 °FClear.2 mph92%30.17 "Hg43 mi
1:00 AM65 °FClear.2 mph94%30.16 "Hg25 mi
11:00 PM
Fri, Aug 28
67 °FClear.3 mph90%30.15 "Hg43 mi
10:00 PM71 °FOvercast.6 mph83%30.13 "Hg43 mi
9:00 PM71 °FPassing clouds.7 mph82%30.12 "Hg40 mi
8:00 PM73 °FScattered clouds.7 mph80%30.10 "Hg43 mi
7:00 PM81 °FPassing clouds.3 mph57%30.07 "Hg47 mi
6:00 PM83 °FScattered clouds.2 mph53%30.06 "Hg47 mi
5:00 PM82 °FPartly sunny.1 mph52%30.06 "Hg47 mi
4:00 PM80 °FPartly sunny.2 mph54%30.07 "Hg43 mi
3:00 PM81 °FOvercast.1 mph52%30.06 "Hg47 mi
2:00 PM79 °FOvercast.2 mph55%30.07 "Hg40 mi
1:00 PM78 °FOvercast.1 mph57%30.06 "Hg43 mi
12:00 PM75 °FOvercast.1 mph68%30.06 "Hg47 mi
11:00 AM74 °FOvercast.5 mph71%30.05 "Hg34 mi
10:00 AM73 °FOvercast.2 mph75%30.02 "Hg40 mi
9:00 AM71 °FOvercast.2 mph84%30.01 "Hg43 mi
8:00 AM69 °FLight rain. Overcast.1 mph91%29.99 "Hg37 mi
7:00 AM68 °FOvercast.1 mph87%29.98 "Hg40 mi
6:00 AM68 °FOvercast.1 mph84%29.96 "Hg40 mi
5:00 AM69 °FOvercast.2 mph83%29.96 "Hg37 mi
Weather by CustomWeather, © 2015

See weather overviewHow to use our weather pages